Location: Haut Kerinec
(48.0623°N, 4.4081°W)
Time: 10:49:10
(UTC+00:00)

STARLINK-1254 - Pass Details

Date: 01 June 2020
Orbit: 549 x 551 km, 53.0° (Epoch: 05 July)

Event Time Altitude Azimuth Distance (km) Brightness Sun altitude
Rises 23:06:42 0° 293° (WNW) 2,721 7.8 -18.0°
Reaches altitude 10° 23:08:58 10° 298° (WNW) 1,826 6.9 -18.1°
Maximum altitude 23:13:03 55° 17° (NNE) 662 4.3 -18.3°
Enters shadow 23:16:52 12° 95° (E) 1,723 5.9 -18.5°
